| time (UTC) | temp C | wind direction | speed KPH | gust KPH | rain 1hr cm | rain 24hr cm | rain mn cm | humidity % | barometer mb |
| 20260504030455 | 7 | 239 | 6.4 | 9.7 | 0.00 | 0.00 | 0.00 | 60 | 1014.2 |
| 20260504025954 | 7 | 230 | 8.0 | 11.3 | 0.00 | 0.00 | 0.00 | 59 | 1014.3 |
| 20260504025454 | 7 | 244 | 8.0 | 9.7 | 0.00 | 0.00 | 0.00 | 59 | 1014.3 |
| 20260504024954 | 7 | 225 | 9.7 | 11.3 | 0.00 | 0.00 | 0.00 | 60 | 1014.3 |
| 20260504024456 | 7 | 234 | 8.0 | 9.7 | 0.00 | 0.00 | 0.00 | 59 | 1014.3 |
| 20260504023955 | 7 | 236 | 8.0 | 11.3 | 0.00 | 0.00 | 0.00 | 59 | 1014.3 |
| 20260504023455 | 7 | 223 | 9.7 | 11.3 | 0.00 | 0.00 | 0.00 | 59 | 1014.3 |
| 20260504022955 | 7 | 244 | 8.0 | 14.5 | 0.00 | 0.00 | 0.00 | 59 | 1014.4 |
| 20260504022455 | 7 | 244 | 14.5 | 14.5 | 0.00 | 0.00 | 0.00 | 59 | 1014.4 |
| 20260504021954 | 7 | 240 | 12.9 | 14.5 | 0.00 | 0.00 | 0.00 | 58 | 1014.4 |
| 20260504021454 | 8 | 254 | 11.3 | 14.5 | 0.00 | 0.00 | 0.00 | 58 | 1014.4 |
| 20260504020955 | 8 | 227 | 8.0 | 16.1 | 0.00 | 0.00 | 0.00 | 58 | 1014.4 |
| 20260504020455 | 8 | 236 | 11.3 | 16.1 | 0.00 | 0.00 | 0.00 | 57 | 1014.3 |
| 20260504015954 | 8 | 239 | 12.9 | 16.1 | 0.00 | 0.00 | 0.00 | 57 | 1014.3 |
| 20260504015455 | 8 | 250 | 16.1 | 16.1 | 0.00 | 0.00 | 0.00 | 57 | 1014.3 |
| 20260504014955 | 8 | 227 | 9.7 | 12.9 | 0.00 | 0.00 | 0.00 | 57 | 1014.3 |
| 20260504014455 | 8 | 244 | 12.9 | 14.5 | 0.00 | 0.00 | 0.00 | 57 | 1014.2 |
| 20260504013955 | 8 | 234 | 9.7 | 12.9 | 0.00 | 0.00 | 0.00 | 57 | 1014.2 |
| 20260504013458 | 8 | 232 | 9.7 | 12.9 | 0.00 | 0.00 | 0.00 | 57 | 1014.2 |
| 20260504012956 | 8 | 230 | 9.7 | 12.9 | 0.00 | 0.00 | 0.00 | 56 | 1014.2 |
| 20260504012455 | 8 | 246 | 11.3 | 14.5 | 0.00 | 0.00 | 0.00 | 56 | 1014.1 |
| 20260504011955 | 8 | 225 | 11.3 | 14.5 | 0.00 | 0.00 | 0.00 | 55 | 1014.1 |
| 20260504011455 | 8 | 234 | 6.4 | 11.3 | 0.00 | 0.00 | 0.00 | 55 | 1014.0 |
| 20260504010955 | 8 | 216 | 6.4 | 12.9 | 0.00 | 0.00 | 0.00 | 55 | 1014.1 |
| 20260504005457 | 8 | 225 | 8.0 | 11.3 | 0.00 | 0.00 | 0.00 | 54 | 1014.1 |
| 20260504004457 | 9 | 240 | 9.7 | 11.3 | 0.00 | 0.00 | 0.00 | 53 | 1014.0 |
| 20260504003956 | 9 | 232 | 8.0 | 12.9 | 0.00 | 0.00 | 0.00 | 52 | 1014.0 |
| 20260504003457 | 10 | 230 | 11.3 | 14.5 | 0.00 | 0.00 | 0.00 | 51 | 1013.9 |
| 20260504002956 | 10 | 237 | 12.9 | 17.7 | 0.00 | 0.00 | 0.00 | 50 | 1013.9 |
| 20260504002457 | 10 | 248 | 12.9 | 14.5 | 0.00 | 0.00 | 0.00 | 51 | 1014.0 |
| 20260504001956 | 10 | 232 | 8.0 | 14.5 | 0.00 | 0.00 | 0.00 | 51 | 1013.9 |
| 20260504001455 | 10 | 246 | 14.5 | 17.7 | 0.00 | 0.00 | 0.00 | 49 | 1013.9 |
| 20260504000956 | 10 | 237 | 14.5 | 19.3 | 0.00 | 0.00 | 0.00 | 49 | 1013.9 |
| 20260504000455 | 10 | 244 | 14.5 | 17.7 | 0.00 | 0.00 | 0.00 | 48 | 1013.8 |
| 20260503235955 | 10 | 247 | 16.1 | 22.5 | 0.00 | 0.00 | 0.00 | 48 | 1013.8 |
| 20260503235455 | 11 | 241 | 14.5 | 24.1 | 0.00 | 0.00 | 0.00 | 47 | 1013.8 |
| 20260503234954 | 11 | 261 | 11.3 | 24.1 | 0.00 | 0.00 | 0.00 | 47 | 1013.8 |
| 20260503234455 | 11 | 226 | 12.9 | 19.3 | 0.00 | 0.00 | 0.00 | 47 | 1013.8 |
| 20260503233955 | 11 | 254 | 11.3 | 20.9 | 0.00 | 0.00 | 0.00 | 46 | 1013.8 |
| 20260503233456 | 11 | 253 | 16.1 | 25.7 | 0.00 | 0.00 | 0.00 | 45 | 1013.9 |
| 20260503232955 | 11 | 253 | 22.5 | 27.4 | 0.00 | 0.00 | 0.00 | 45 | 1013.9 |
| 20260503232456 | 11 | 247 | 17.7 | 30.6 | 0.00 | 0.00 | 0.00 | 45 | 1013.9 |
| 20260503231955 | 11 | 272 | 27.4 | 29.0 | 0.00 | 0.00 | 0.00 | 44 | 1013.9 |
| 20260503231455 | 11 | 260 | 12.9 | 20.9 | 0.00 | 0.00 | 0.00 | 44 | 1013.9 |
| 20260503230955 | 11 | 248 | 20.9 | 24.1 | 0.00 | 0.00 | 0.00 | 43 | 1013.9 |
| 20260503230455 | 11 | 257 | 20.9 | 27.4 | 0.00 | 0.00 | 0.00 | 43 | 1013.9 |
| 20260503225955 | 11 | 251 | 17.7 | 32.2 | 0.00 | 0.00 | 0.00 | 43 | 1014.0 |
| 20260503225455 | 11 | 262 | 14.5 | 25.7 | 0.00 | 0.00 | 0.00 | 44 | 1013.9 |
| 20260503224955 | 11 | 248 | 24.1 | 29.0 | 0.00 | 0.00 | 0.00 | 43 | 1013.9 |
| 20260503224455 | 11 | 243 | 22.5 | 35.4 | 0.00 | 0.00 | 0.00 | 42 | 1013.8 |
| 20260503223955 | 12 | 234 | 25.7 | 35.4 | 0.00 | 0.00 | 0.00 | 41 | 1013.9 |
| 20260503223455 | 12 | 248 | 20.9 | 29.0 | 0.00 | 0.00 | 0.00 | 42 | 1013.8 |
| 20260503222958 | 12 | 265 | 17.7 | 27.4 | 0.00 | 0.00 | 0.00 | 41 | 1013.8 |
| 20260503222455 | 12 | 255 | 20.9 | 27.4 | 0.00 | 0.00 | 0.00 | 42 | 1013.8 |
| 20260503221955 | 12 | 244 | 14.5 | 29.0 | 0.00 | 0.00 | 0.00 | 43 | 1013.9 |
| 20260503221455 | 11 | 261 | 29.0 | 29.0 | 0.00 | 0.00 | 0.00 | 42 | 1013.9 |
| 20260503220955 | 12 | 260 | 19.3 | 32.2 | 0.00 | 0.00 | 0.00 | 42 | 1013.9 |
| 20260503220455 | 12 | 261 | 22.5 | 25.7 | 0.00 | 0.00 | 0.00 | 41 | 1013.8 |
| 20260503215955 | 12 | 262 | 27.4 | 27.4 | 0.00 | 0.00 | 0.00 | 42 | 1013.8 |
| 20260503215455 | 12 | 251 | 19.3 | 35.4 | 0.00 | 0.00 | 0.00 | 42 | 1013.9 |
| 20260503214955 | 12 | 261 | 25.7 | 38.6 | 0.00 | 0.00 | 0.00 | 40 | 1013.9 |
| 20260503214455 | 12 | 258 | 27.4 | 29.0 | 0.00 | 0.00 | 0.00 | 40 | 1013.9 |
| 20260503213955 | 12 | 268 | 27.4 | 30.6 | 0.00 | 0.00 | 0.00 | 42 | 1013.9 |
| 20260503213455 | 12 | 281 | 11.3 | 32.2 | 0.00 | 0.00 | 0.00 | 42 | 1013.8 |
| 20260503212955 | 12 | 265 | 14.5 | 32.2 | 0.00 | 0.00 | 0.00 | 41 | 1013.9 |
| 20260503212455 | 12 | 233 | 19.3 | 27.4 | 0.00 | 0.00 | 0.00 | 42 | 1013.9 |
| 20260503211955 | 11 | 268 | 22.5 | 32.2 | 0.00 | 0.00 | 0.00 | 43 | 1013.9 |
| 20260503211455 | 12 | 255 | 20.9 | 33.8 | 0.00 | 0.00 | 0.00 | 44 | 1014.0 |
| 20260503210955 | 12 | 226 | 22.5 | 29.0 | 0.00 | 0.00 | 0.00 | 42 | 1013.9 |
| 20260503210455 | 12 | 248 | 22.5 | 37.0 | 0.00 | 0.00 | 0.00 | 42 | 1014.0 |
| 20260503205956 | 12 | 277 | 24.1 | 24.1 | 0.00 | 0.00 | 0.00 | 41 | 1013.9 |
| 20260503205455 | 12 | 247 | 14.5 | 24.1 | 0.00 | 0.00 | 0.00 | 44 | 1013.9 |
| 20260503204955 | 12 | 275 | 17.7 | 33.8 | 0.00 | 0.00 | 0.00 | 46 | 1014.0 |
| 20260503204455 | 11 | 255 | 29.0 | 37.0 | 0.00 | 0.00 | 0.00 | 42 | 1014.0 |
| 20260503203955 | 11 | 255 | 19.3 | 37.0 | 0.00 | 0.00 | 0.00 | 44 | 1014.0 |
| 20260503203455 | 12 | 262 | 27.4 | 30.6 | 0.00 | 0.00 | 0.00 | 41 | 1013.9 |
| 20260503202956 | 12 | 268 | 19.3 | 32.2 | 0.00 | 0.00 | 0.00 | 46 | 1014.0 |
| 20260503202455 | 11 | 278 | 24.1 | 37.0 | 0.00 | 0.00 | 0.00 | 45 | 1014.1 |
| 20260503201955 | 11 | 248 | 27.4 | 32.2 | 0.00 | 0.00 | 0.00 | 44 | 1014.1 |
| 20260503201455 | 11 | 300 | 16.1 | 30.6 | 0.00 | 0.00 | 0.00 | 43 | 1014.1 |
| 20260503200955 | 11 | 274 | 33.8 | 35.4 | 0.00 | 0.00 | 0.00 | 42 | 1014.2 |
| 20260503200455 | 11 | 271 | 16.1 | 35.4 | 0.00 | 0.00 | 0.00 | 44 | 1014.2 |
| 20260503195955 | 11 | 279 | 14.5 | 24.1 | 0.00 | 0.00 | 0.00 | 43 | 1014.3 |
| 20260503195455 | 12 | 278 | 16.1 | 19.3 | 0.00 | 0.00 | 0.00 | 43 | 1014.3 |
| 20260503194957 | 12 | 285 | 12.9 | 35.4 | 0.00 | 0.00 | 0.00 | 43 | 1014.5 |
| 20260503194456 | 12 | 210 | 22.5 | 40.2 | 0.00 | 0.00 | 0.00 | 44 | 1014.5 |
| 20260503193958 | 11 | 253 | 27.4 | 33.8 | 0.00 | 0.00 | 0.00 | 42 | 1014.6 |
| 20260503193456 | 12 | 258 | 27.4 | 27.4 | 0.00 | 0.00 | 0.00 | 44 | 1014.7 |
| 20260503192956 | 11 | 278 | 19.3 | 33.8 | 0.00 | 0.00 | 0.00 | 44 | 1014.7 |
| 20260503192455 | 11 | 264 | 12.9 | 27.4 | 0.00 | 0.00 | 0.00 | 43 | 1014.7 |
| 20260503191955 | 11 | 268 | 22.5 | 29.0 | 0.00 | 0.00 | 0.00 | 42 | 1014.8 |
| 20260503191456 | 11 | 282 | 14.5 | 33.8 | 0.00 | 0.00 | 0.00 | 45 | 1014.9 |
| 20260503190955 | 11 | 274 | 14.5 | 30.6 | 0.00 | 0.00 | 0.00 | 44 | 1014.8 |
| 20260503190455 | 11 | 217 | 22.5 | 30.6 | 0.00 | 0.00 | 0.00 | 47 | 1015.1 |
| 20260503185956 | 11 | 253 | 27.4 | 33.8 | 0.00 | 0.00 | 0.00 | 43 | 1015.1 |
| 20260503185455 | 11 | 265 | 25.7 | 40.2 | 0.00 | 0.00 | 0.00 | 43 | 1015.1 |
| 20260503184956 | 11 | 232 | 24.1 | 32.2 | 0.00 | 0.00 | 0.00 | 45 | 1015.2 |
| 20260503184455 | 11 | 262 | 29.0 | 41.8 | 0.00 | 0.00 | 0.00 | 43 | 1015.3 |
| 20260503183955 | 11 | 275 | 20.9 | 32.2 | 0.00 | 0.00 | 0.00 | 43 | 1015.3 |
| 20260503183459 | 11 | 260 | 12.9 | 32.2 | 0.00 | 0.00 | 0.00 | 44 | 1015.3 |
| 20260503182956 | 11 | 289 | 24.1 | 24.1 | 0.00 | 0.00 | 0.00 | 45 | 1015.4 |
| 20260503182455 | 11 | 257 | 17.7 | 32.2 | 0.00 | 0.00 | 0.00 | 44 | 1015.4 |
| 20260503181955 | 10 | 257 | 14.5 | 22.5 | 0.00 | 0.00 | 0.00 | 43 | 1015.5 |
| 20260503181456 | 11 | 282 | 19.3 | 33.8 | 0.00 | 0.00 | 0.00 | 44 | 1015.5 |
| 20260503180956 | 10 | 262 | 30.6 | 30.6 | 0.00 | 0.00 | 0.00 | 44 | 1015.5 |
| 20260503180457 | 11 | 281 | 19.3 | 30.6 | 0.00 | 0.00 | 0.00 | 47 | 1015.6 |
| 20260503175956 | 11 | 305 | 14.5 | 29.0 | 0.00 | 0.00 | 0.00 | 43 | 1015.5 |
| 20260503175456 | 11 | 282 | 25.7 | 27.4 | 0.00 | 0.00 | 0.00 | 46 | 1015.5 |
| 20260503174956 | 10 | 274 | 17.7 | 30.6 | 0.00 | 0.00 | 0.00 | 47 | 1015.5 |
| 20260503174456 | 10 | 264 | 19.3 | 35.4 | 0.00 | 0.00 | 0.00 | 46 | 1015.5 |
| 20260503173956 | 10 | 241 | 19.3 | 37.0 | 0.00 | 0.00 | 0.00 | 48 | 1015.6 |
| 20260503173456 | 10 | 248 | 33.8 | 33.8 | 0.00 | 0.00 | 0.00 | 48 | 1015.7 |
| 20260503172956 | 10 | 241 | 24.1 | 27.4 | 0.00 | 0.00 | 0.00 | 45 | 1015.7 |
| 20260503172456 | 10 | 274 | 12.9 | 35.4 | 0.00 | 0.00 | 0.00 | 43 | 1015.7 |
| 20260503171955 | 10 | 243 | 20.9 | 38.6 | 0.00 | 0.00 | 0.00 | 45 | 1015.9 |
| 20260503171457 | 10 | 279 | 33.8 | 38.6 | 0.00 | 0.00 | 0.00 | 45 | 1015.8 |
| 20260503170956 | 10 | 255 | 22.5 | 33.8 | 0.00 | 0.00 | 0.00 | 48 | 1015.8 |
| 20260503170456 | 10 | 271 | 17.7 | 37.0 | 0.00 | 0.00 | 0.00 | 48 | 1015.8 |
| 20260503150956 | 7 | 241 | 29.0 | 35.4 | 0.00 | 0.00 | 0.00 | 56 | 1016.4 |
| 20260503150457 | 7 | 236 | 35.4 | 35.4 | 0.00 | 0.00 | 0.00 | 60 | 1016.4 |
| 20260503130956 | 3 | 299 | 12.9 | 22.5 | 0.00 | 0.00 | 0.00 | 79 | 1016.5 |
| 20260503130456 | 3 | 288 | 9.7 | 22.5 | 0.00 | 0.00 | 0.00 | 77 | 1016.4 |
| 20260503110456 | 0 | 268 | 6.4 | 8.0 | 0.00 | 0.00 | 0.00 | 93 | 1017.0 |
| 20260503090456 | -1 | 282 | 8.0 | 9.7 | 0.00 | 0.00 | 0.00 | 90 | 1015.4 |
| 20260503081456 | 0 | 282 | 4.8 | 6.4 | 0.00 | 0.00 | 0.00 | 86 | 1015.3 |
| 20260503080957 | 0 | 270 | 4.8 | 9.7 | 0.00 | 0.00 | 0.00 | 86 | 1015.3 |
| 20260503080456 | 0 | 292 | 6.4 | 8.0 | 0.00 | 0.00 | 0.00 | 86 | 1015.3 |
| 20260503072457 | 0 | 274 | 4.8 | 6.4 | 0.00 | 0.00 | 0.00 | 84 | 1015.1 |
| 20260503071956 | 0 | 262 | 4.8 | 6.4 | 0.00 | 0.00 | 0.00 | 83 | 1014.9 |
| 20260503071456 | 0 | 274 | 3.2 | 9.7 | 0.00 | 0.00 | 0.00 | 82 | 1014.9 |
| 20260503070957 | 1 | 277 | 8.0 | 8.0 | 0.00 | 0.00 | 0.00 | 82 | 1014.9 |
| 20260503070456 | 1 | 281 | 3.2 | 6.4 | 0.00 | 0.00 | 0.00 | 81 | 1014.9 |
| 20260503054958 | 2 | 305 | 3.2 | 12.9 | 0.00 | 0.00 | 0.00 | 77 | 1014.9 |
| 20260503054457 | 2 | 316 | 8.0 | 9.7 | 0.00 | 0.00 | 0.00 | 78 | 1014.9 |
| 20260503053957 | 2 | 316 | 3.2 | 12.9 | 0.00 | 0.00 | 0.00 | 78 | 1014.9 |
| 20260503053457 | 2 | 305 | 1.6 | 8.0 | 0.00 | 0.00 | 0.00 | 78 | 1015.1 |
| 20260503052958 | 2 | 295 | 8.0 | 8.0 | 0.00 | 0.00 | 0.00 | 78 | 1015.1 |
| 20260503052457 | 2 | 291 | 9.7 | 9.7 | 0.00 | 0.00 | 0.00 | 78 | 1015.2 |
| 20260503051958 | 1 | 298 | 4.8 | 6.4 | 0.00 | 0.00 | 0.00 | 79 | 1015.2 |
| 20260503051457 | 2 | 305 | 3.2 | 9.7 | 0.00 | 0.00 | 0.00 | 80 | 1015.3 |
| 20260503050957 | 1 | 295 | 4.8 | 8.0 | 0.00 | 0.00 | 0.00 | 80 | 1015.3 |
| 20260503050459 | 2 | 298 | 6.4 | 8.0 | 0.00 | 0.00 | 0.00 | 80 | 1015.3 |
| 20260503045958 | 2 | 300 | 4.8 | 8.0 | 0.00 | 0.00 | 0.00 | 80 | 1015.3 |
| 20260503045457 | 2 | 270 | 6.4 | 9.7 | 0.00 | 0.00 | 0.00 | 80 | 1015.4 |
| 20260503044958 | 2 | 272 | 4.8 | 8.0 | 0.00 | 0.00 | 0.00 | 80 | 1015.3 |
| 20260503044457 | 2 | 293 | 8.0 | 9.7 | 0.00 | 0.00 | 0.00 | 80 | 1015.3 |
| 20260503043957 | 2 | 298 | 4.8 | 9.7 | 0.00 | 0.00 | 0.00 | 79 | 1015.4 |
| 20260503043457 | 2 | 284 | 8.0 | 9.7 | 0.00 | 0.00 | 0.00 | 79 | 1015.4 |
| 20260503042957 | 2 | 272 | 4.8 | 8.0 | 0.00 | 0.00 | 0.00 | 78 | 1015.4 |
| 20260503042457 | 2 | 275 | 6.4 | 9.7 | 0.00 | 0.00 | 0.00 | 77 | 1015.4 |
| 20260503041957 | 2 | 278 | 6.4 | 11.3 | 0.00 | 0.00 | 0.00 | 76 | 1015.4 |
| 20260503041458 | 2 | 298 | 6.4 | 8.0 | 0.00 | 0.00 | 0.00 | 74 | 1015.4 |
| 20260503040958 | 2 | 300 | 8.0 | 8.0 | 0.00 | 0.00 | 0.00 | 74 | 1015.4 |
| 20260503040457 | 2 | 309 | 4.8 | 6.4 | 0.00 | 0.00 | 0.00 | 74 | 1015.4 |
| 20260503035957 | 2 | 324 | 3.2 | 8.0 | 0.00 | 0.00 | 0.00 | 74 | 1015.4 |
| 20260503035458 | 2 | 319 | 6.4 | 8.0 | 0.00 | 0.00 | 0.00 | 75 | 1015.4 |
| 20260503035000 | 2 | 327 | 4.8 | 6.4 | 0.00 | 0.00 | 0.00 | 75 | 1015.4 |
| 20260503034457 | 2 | 316 | 4.8 | 6.4 | 0.00 | 0.00 | 0.00 | 75 | 1015.4 |
| 20260503033958 | 2 | 305 | 4.8 | 9.7 | 0.00 | 0.00 | 0.00 | 76 | 1015.4 |
| 20260503033500 | 2 | 296 | 8.0 | 8.0 | 0.00 | 0.00 | 0.00 | 75 | 1015.5 |
| 20260503032958 | 2 | 274 | 8.0 | 9.7 | 0.00 | 0.00 | 0.00 | 75 | 1015.5 |
| 20260503032457 | 2 | 298 | 3.2 | 9.7 | 0.00 | 0.00 | 0.00 | 76 | 1015.5 |
| 20260503031957 | 3 | 282 | 3.2 | 8.0 | 0.00 | 0.00 | 0.00 | 76 | 1015.5 |
| 20260503031459 | 2 | 258 | 6.4 | 9.7 | 0.00 | 0.00 | 0.00 | 76 | 1015.5 |
| 20260503030957 | 3 | 293 | 6.4 | 8.0 | 0.00 | 0.00 | 0.00 | 75 | 1015.6 |